Regional Weather Roundup
Issued by NWS

Home | Current Version | Previous Version | Text Only | Print | Product List | Glossary On
Versions: 1 2 3 4 5 6 7 8 9 10 11 12 13 14 15 16 17 18 19 20 21 22 23 24 25 26 27 28 29 30 31 32 33 34 35 36 37 38 39 40 41 42 43 44 45 46 47 48 49 50
000
ASUS43 KBIS 122059
RWRND

NORTH DAKOTA REGIONAL WEATHER ROUNDUP
NATIONAL WEATHER SERVICE BISMARCK ND
400 PM CDT SAT JUL 12 2014

NOTE: "FAIR" INDICATES FEW OR NO CLOUDS BELOW 12,000 FEET WITH NO
SIGNIFICANT WEATHER AND/OR OBSTRUCTIONS TO VISIBILITY.


NDZ001>003-009>011-017-122200-
NORTHWEST NORTH DAKOTA

CITY           SKY/WX    TMP DP  RH WIND       PRES   REMARKS
WILLISTON      MOSUNNY   84  45  25 NW17G29   30.08F
MINOT          SUNNY     79  49  34 W17G32    30.01F
$$

NDZ018>021-031>035-040>046-122200-
SOUTHWEST NORTH DAKOTA

CITY           SKY/WX    TMP DP  RH WIND       PRES   REMARKS
BISMARCK       MOSUNNY   84  57  39 NW13G21   30.05F
GARRISON         N/A     78  57  48 NW16G25   30.05S
HETTINGER ARPT SUNNY     81  59  47 W8        30.13F
$$

NDZ004>008-012>016-024-026-027-054-122200-
NORTHEAST NORTH DAKOTA

CITY           SKY/WX    TMP DP  RH WIND       PRES   REMARKS
GRAND FORKS    PTSUNNY   79  56  45 W18       29.91F
DEVILS LAKE    SUNNY     79  54  41 W17G29    29.95F
$$

NDZ022-023-025-028>030-036>039-047>053-122200-
SOUTHEAST NORTH DAKOTA

CITY           SKY/WX    TMP DP  RH WIND       PRES   REMARKS
FARGO          MOSUNNY   80  57  45 W15       29.95F
$$



USA.gov is the U.S. government's official web portal to all federal, state and local government web resources and services.